DECAYED

OBJECT DL, 59478 (Decayed)

Orbit data source: Space-Track

You're viewing an Uncataloged Satellite

Recently launched and/or uncataloged satellites may have evolving metadata. Metadata may include but not limited to: Owner, Maufacturer, Bus, Motor, and Mission.

OBJECT DL, 59478 was a satellite in LEO that was launched on Sat, 11 Nov 2023 UTC via an FALCON 9 launch vehicle from the Air Force Western Test Range (AFWTR). Unknown objects in Earth's orbit typically refer to objects detected orbiting the Earth but have not yet been identified or cataloged. These objects could be anything from previously untracked satellites, spent rocket stages, debris from satellite collisions, or even natural meteoroids temporarily captured by Earth's gravity. This object's orbit decayed before it could be identified.

Not visible in the next 10 days
Identifier
59478, 2023-174DL
Orbit
Decayed
Country
Flag of TBDTBD
Related business
None
Manufacturer
Unknown
Mission
Decayed Commercial Communications
Bus & Motor
Unknown
Mass
Unknown
Launch date (UTC)
2023-11-11 (2 years ago)
Launch vehicle
FALCON 9
Launch site
Air Force Western Test Range (AFWTR)
Object type
Unknown
Shape & HBR
Box, 0.1 m
Radar Cross Section
0.035 m², Small (<0.1 m²)

Expand to show TLE details & history
Last TLE update: 9 months ago

TLE from 9 months ago
0 OBJECT DL
1 59478U 23174DL  25083.16645497  .12390791  24646-5  36812-2 0  9991
2 59478  97.3835 171.6240 0012834 269.3392  90.6430 16.26928089 56861
Epoch: 2025-03-24T03:59Z
TLE epoch observation values (Epoch: 2025-03-24T03:59:41.709Z)
Latitude
-0.00002°
Longitude
-70.1865°
Altitude
204.148 km
Speed
7.784 km/s
True Right ascension
11h 26m 29s
True Declination
0° 00' 00"
Sunlit
Object was in full shadow at epoch
Visualization orbit readout
Latitude
Unknown
Longitude
Unknown
Altitude
Unknown
Speed
Unknown
Apparent Right ascension
Unknown
Apparent Declination
Unknown
Sunlit
N/A
Visualization observer readout
Local Sidereal Time
05:17:49
Azimuth
Unknown
Elevation
Unknown
Doppler factor
Unknown
Orbital elements
Apogee altitude
206.071 km
Perigee altitude
189.193 km
Semi-major axis
6,575.769 km
Eccentricity
0.00128
Inclination
97.3835°
RAAN
171.624°
Arg. of periapsis
269.3392°
True anomaly
90.79005°
Mean anomaly
90.643°
Eccentric anomaly
90.71653°
Mean motion
4.07027 °/min
Orbital period
88.45 mins
BSTAR
0.0036812
Loading maneuver chart data...
Computing Atmospheric mass density...
Loading historical data...
Loading historical data...
Loading historical data...
Loading historical data...
Loading historical data...
Loading historical data...
Loading historical data...

Documentation

Showing up to 5 results
|